Wind_Speed
10 10 10 10 11 11 11 11 12 13 13 14 14 15 15 15 16 17 18 18 19 20 20 21 22 23 24 24 25 26 27 27 27 28 29 29 30 30
11 11 11 11 12 13 12 12 13 13 13 14 15 15 16 17 17 18 18 19 20 20 21 22 23 24 25 26 27 28 29 29 29 30 31 31 31 31
12 12 13 13 14 14 13 13 14 14 15 15 16 16 17 17 18 18 19 20 21 21 22 23 24 25 26 26 27 28 29 30 31 31 32 32 32 31
12 13 13 13 14 14 14 15 15 16 16 16 17 17 18 18 18 19 20 21 22 22 23 24 24 25 26 26 27 27 29 30 31 32 32 32 32 32
13 13 14 14 14 15 15 16 16 17 17 17 17 18 18 19 19 20 20 22 23 24 24 25 26 26 26 26 27 28 29 30 31 32 32 32 32 32
14 14 14 14 14 15 15 16 16 17 17 17 17 18 18 19 19 21 21 23 24 24 24 25 26 26 27 28 29 29 30 31 31 31 31 32 33 33
15 15 14 14 14 14 15 15 16 16 17 17 17 18 19 19 20 22 22 23 24 25 25 26 27 27 27 28 29 29 30 31 31 31 32 32 33 33
15 15 14 15 15 15 15 16 16 17 17 17 18 18 19 20 21 22 23 24 24 25 26 27 27 28 28 29 29 30 30 30 31 32 32 33 33 34
15 15 15 15 15 15 15 16 16 17 17 17 18 19 20 21 22 23 24 24 25 26 27 28 29 30 30 31 31 31 31 31 31 32 33 33 33 34
15 16 16 15 16 16 16 16 17 17 18 18 19 20 21 22 23 24 25 26 26 27 27 28 29 30 31 31 31 31 31 32 32 32 32 32 32 33
16 16 16 16 16 17 17 18 18 19 19 20 21 22 23 24 25 25 26 27 27 28 28 29 29 30 31 31 32 32 32 32 32 32 33 33 33 33
17 17 17 17 18 18 19 19 19 20 21 22 22 23 24 25 25 26 27 27 28 28 29 30 30 31 31 32 32 32 32 32 32 33 33 33 33 33
18 19 18 19 20 20 20 21 21 22 23 23 23 24 25 26 27 27 28 28 29 30 30 31 31 32 32 33 33 33 33 33 33 33 33 33 33 33
20 20 21 21 22 22 23 23 23 23 24 24 25 26 26 27 28 28 29 30 30 31 31 32 33 33 33 33 33 34 34 34 34 33 33 32 32 32
21 22 22 23 23 24 24 24 25 25 26 26 26 27 28 28 29 30 30 31 31 32 32 33 33 33 33 34 34 34 34 34 34 34 33 33 33 33
22 23 23 23 24 24 24 25 26 27 27 27 28 28 29 30 30 31 32 33 33 33 33 33 34 34 34 34 35 35 35 34 34 34 34 34 33 33
24 24 24 25 25 26 26 27 27 28 28 28 29 30 30 31 32 32 33 34 34 34 34 35 35 35 35 35 36 35 35 35 35 34 34 33 33 33
26 26 26 26 27 27 28 28 29 29 29 30 31 32 32 33 33 34 35 35 36 36 36 36 36 37 37 36 36 35 34 35 35 34 33 33 33 32
28 28 28 28 28 28 29 30 30 30 31 32 32 33 33 34 34 35 36 37 37 37 38 37 37 37 36 35 35 34 34 34 34 33 33 33 33 33
29 29 29 30 30 30 31 32 32 32 32 33 33 34 34 35 36 37 37 37 37 38 38 37 37 37 36 35 34 34 34 33 33 33 33 32 32 32
31 31 31 31 32 32 32 33 33 33 34 34 34 35 35 35 36 37 37 37 37 38 37 37 36 35 35 35 35 34 34 34 33 33 32 31 31 30
32 32 32 33 33 33 33 34 34 34 35 35 35 35 35 36 37 37 37 37 37 37 36 36 36 36 35 35 35 35 34 33 33 32 31 31 30 29
32 33 34 34 34 35 35 35 35 34 34 35 35 35 35 36 36 36 36 35 35 36 35 35 35 35 35 35 34 34 33 33 32 32 31 30 30 30
Wind_Direction
312 313 313 311 312 311 308 307 308 306 305 305 306 307 308 307 301 301 300 296 293 291 291 292 291 289 289 289 288 288 287 287 286 285 285 285 285 283
311 311 311 310 308 307 304 305 305 304 304 306 306 307 304 303 304 303 304 302 300 295 292 293 292 291 291 291 290 289 287 287 286 286 286 286 284 283
307 307 305 303 303 304 300 305 304 303 305 305 306 307 308 307 306 305 305 305 302 299 297 297 295 295 293 293 293 292 290 289 287 287 287 286 284 283
306 307 306 303 301 301 302 304 303 304 305 305 305 305 306 306 307 308 308 307 306 305 305 304 301 300 298 295 295 295 294 293 291 290 289 287 285 284
309 310 309 306 304 302 302 302 303 304 305 305 305 306 306 307 308 309 309 308 307 306 306 305 304 303 301 300 299 297 297 296 294 291 289 288 285 284
311 312 311 309 308 305 303 303 304 304 305 305 306 307 309 308 308 308 308 307 307 306 306 305 304 304 303 301 299 299 298 297 295 292 291 289 288 288
310 311 312 313 312 311 310 309 307 306 306 306 307 307 308 308 308 309 309 308 307 306 307 305 305 306 306 304 301 300 299 298 296 294 292 291 289 289
312 310 312 315 315 314 312 311 311 311 310 309 308 309 310 310 310 311 311 309 307 307 306 305 305 305 306 305 305 304 303 300 298 296 294 293 291 290
315 313 312 313 317 317 316 314 314 313 313 312 311 311 311 311 312 312 312 311 311 310 308 307 306 307 305 305 304 304 303 302 301 300 297 295 294 292
310 313 313 312 315 316 316 315 315 315 315 315 314 314 315 316 315 314 314 313 312 311 309 309 308 307 306 306 306 305 304 303 302 301 300 299 297 295
307 309 310 309 310 311 313 313 313 312 312 312 312 313 313 314 313 314 315 315 314 313 312 311 310 310 309 309 308 307 306 305 304 302 300 299 298 297
306 307 307 306 306 307 309 310 309 310 310 310 310 311 313 313 314 314 314 314 314 314 314 313 313 312 312 311 310 309 307 306 305 303 302 301 300 299
305 305 304 304 304 305 306 307 308 308 308 308 308 310 312 313 314 314 313 314 313 313 313 313 313 313 312 311 310 309 308 307 306 305 304 303 301 300
303 302 302 302 301 302 304 305 306 307 308 308 309 310 312 313 313 313 312 313 313 312 312 313 313 313 312 311 310 309 308 307 307 306 305 303 302 302
301 301 301 302 302 302 304 304 305 306 307 307 309 310 311 311 312 313 312 312 312 311 311 312 312 312 311 310 309 309 308 307 306 305 304 303 303 303
299 300 301 302 301 301 302 303 304 304 306 307 308 309 309 310 310 312 313 313 312 311 311 311 311 311 311 310 309 308 308 307 306 306 305 305 304 303
300 300 300 300 300 300 300 302 303 304 305 306 307 308 308 309 309 311 311 312 312 311 311 311 311 311 311 310 309 308 308 307 307 306 305 305 304 304
301 300 299 299 299 300 300 301 302 304 305 306 306 306 307 308 309 309 310 311 311 311 310 310 310 310 310 310 309 308 307 307 307 306 305 305 304 304
299 300 299 300 299 299 300 300 301 302 302 304 305 305 306 306 307 308 308 309 310 310 310 310 310 310 310 310 310 309 309 308 308 306 305 305 305 304
297 298 298 298 298 299 299 299 300 301 301 302 304 305 305 306 307 308 309 309 310 310 310 310 310 310 309 310 310 311 310 310 310 308 306 306 305 305
296 297 297 298 298 298 299 299 299 300 300 301 302 303 304 306 307 308 309 309 310 310 310 310 310 310 310 309 310 311 311 310 310 309 308 307 306 305
297 298 298 299 299 299 299 298 298 299 299 300 301 302 303 305 306 307 309 309 310 311 311 311 311 311 310 309 309 311 311 311 310 310 309 308 307 306
295 296 297 298 298 299 299 299 299 299 300 300 300 301 303 305 306 307 308 309 310 310 311 311 312 312 312 312 311 311 312 311 311 310 309 308 307 306
Height
5883 5881 5880 5878 5877 5875 5874 5873 5872 5870 5868 5866 5865 5863 5861 5859 5857 5856 5854 5852 5851 5849 5847 5846 5844 5843 5841 5840 5838 5836 5834 5833 5831 5829 5827 5825 5824 5822
5880 5879 5878 5876 5874 5872 5870 5869 5868 5867 5866 5864 5862 5860 5858 5856 5854 5852 5850 5848 5846 5844 5842 5840 5839 5837 5835 5833 5831 5829 5827 5825 5823 5821 5819 5817 5815 5813
5878 5877 5875 5873 5871 5869 5867 5866 5865 5864 5862 5860 5858 5856 5854 5852 5850 5848 5845 5843 5841 5839 5837 5834 5832 5830 5828 5826 5824 5821 5819 5817 5815 5812 5810 5808 5806 5804
5875 5874 5872 5870 5868 5866 5864 5863 5862 5860 5858 5857 5854 5852 5850 5848 5846 5843 5841 5838 5836 5833 5831 5828 5826 5823 5821 5818 5816 5814 5811 5809 5806 5804 5801 5799 5797 5795
5872 5870 5868 5867 5865 5863 5861 5860 5858 5856 5855 5853 5851 5849 5846 5844 5841 5839 5836 5833 5830 5828 5825 5822 5820 5817 5814 5811 5809 5806 5804 5801 5798 5795 5792 5790 5788 5785
5869 5867 5865 5863 5861 5859 5858 5856 5854 5852 5850 5849 5847 5844 5842 5839 5837 5834 5831 5828 5825 5822 5819 5816 5813 5810 5807 5805 5802 5799 5796 5793 5789 5786 5784 5781 5778 5776
5867 5865 5862 5860 5858 5856 5855 5853 5851 5849 5846 5844 5842 5840 5838 5835 5832 5829 5826 5823 5820 5817 5814 5811 5807 5804 5801 5797 5794 5791 5788 5785 5781 5778 5775 5772 5769 5766
5863 5861 5859 5857 5855 5853 5851 5849 5847 5845 5843 5840 5838 5836 5833 5830 5827 5824 5821 5817 5814 5811 5807 5804 5801 5797 5794 5791 5787 5783 5780 5776 5773 5769 5766 5763 5760 5757
5860 5858 5856 5854 5852 5850 5848 5845 5843 5841 5839 5837 5834 5831 5828 5826 5823 5819 5815 5812 5808 5804 5801 5797 5794 5790 5787 5783 5779 5776 5772 5769 5765 5761 5757 5754 5750 5747
5857 5855 5853 5851 5849 5847 5844 5842 5840 5837 5835 5832 5830 5827 5824 5821 5817 5814 5810 5806 5802 5798 5794 5791 5787 5783 5779 5775 5771 5768 5764 5760 5756 5752 5748 5745 5741 5738
5854 5852 5850 5847 5845 5843 5841 5838 5836 5833 5830 5828 5825 5822 5819 5815 5812 5808 5804 5800 5796 5792 5788 5784 5780 5776 5772 5767 5763 5759 5755 5752 5747 5744 5740 5736 5732 5729
5850 5848 5846 5843 5841 5839 5836 5834 5831 5828 5826 5823 5820 5817 5813 5810 5806 5803 5799 5794 5790 5786 5782 5778 5773 5769 5764 5760 5756 5751 5747 5743 5739 5735 5731 5727 5723 5720
5845 5843 5841 5839 5836 5834 5831 5829 5826 5823 5820 5817 5814 5811 5808 5804 5800 5796 5792 5788 5784 5780 5775 5771 5766 5761 5757 5752 5748 5743 5739 5735 5730 5726 5722 5718 5714 5711
5841 5838 5836 5834 5831 5829 5826 5823 5820 5817 5814 5811 5808 5805 5801 5798 5794 5790 5786 5781 5777 5773 5768 5764 5759 5754 5749 5745 5740 5736 5731 5726 5722 5718 5714 5710 5706 5702
5835 5833 5830 5828 5826 5823 5820 5817 5814 5811 5808 5805 5801 5798 5795 5791 5787 5783 5779 5774 5770 5765 5761 5756 5751 5746 5742 5737 5732 5727 5723 5718 5714 5709 5705 5701 5697 5693
5829 5827 5824 5822 5819 5817 5814 5811 5808 5805 5801 5798 5794 5791 5787 5784 5780 5776 5771 5766 5762 5758 5753 5748 5743 5739 5734 5729 5724 5719 5714 5709 5705 5700 5696 5692 5688 5684
5823 5820 5818 5815 5813 5810 5807 5804 5801 5798 5794 5791 5787 5783 5780 5776 5772 5767 5763 5758 5753 5749 5744 5740 5735 5730 5725 5720 5715 5710 5705 5700 5696 5692 5687 5683 5679 5675
5816 5814 5811 5808 5805 5802 5800 5797 5793 5790 5787 5783 5780 5776 5772 5767 5763 5759 5754 5750 5745 5740 5735 5731 5726 5721 5716 5711 5706 5701 5696 5692 5687 5682 5678 5674 5670 5666
5809 5806 5804 5801 5798 5795 5792 5789 5786 5782 5779 5775 5771 5767 5763 5759 5754 5750 5746 5741 5736 5731 5726 5721 5716 5712 5707 5702 5697 5692 5687 5683 5678 5673 5669 5665 5661 5657
5801 5799 5796 5793 5790 5786 5783 5780 5777 5773 5770 5766 5762 5758 5754 5750 5745 5741 5736 5732 5727 5722 5717 5712 5707 5702 5697 5693 5688 5683 5678 5674 5669 5665 5660 5656 5652 5648
5793 5790 5787 5784 5781 5778 5775 5771 5768 5764 5761 5757 5753 5749 5745 5741 5736 5732 5727 5722 5717 5712 5707 5703 5698 5693 5688 5684 5679 5675 5670 5665 5660 5656 5651 5647 5643 5639
5784 5782 5779 5775 5772 5769 5765 5762 5758 5755 5751 5747 5743 5739 5735 5731 5727 5722 5717 5713 5708 5703 5698 5693 5689 5684 5680 5675 5670 5666 5661 5656 5652 5647 5643 5639 5635 5631
5775 5772 5769 5766 5763 5759 5756 5752 5749 5745 5741 5737 5733 5729 5725 5721 5717 5713 5708 5704 5699 5694 5689 5684 5680 5675 5670 5666 5661 5657 5652 5647 5643 5639 5635 5630 5627 5623